CW8635 Weather Reports


Display with metric or nautical units.
time (UTC)temp
F
wind
direction
speed
MPH
gust
MPH
rain 1hr
in
rain 24hr
in
rain mn
in
humidity
%
barometer
mb
20260508202630 73 277 7.0 12.0 0.00 0.00 0.00 24 1016.8
20260508201629 73 110 1.0 10.0 0.00 0.00 0.00 26 1016.8
20260508200626 72 193 3.0 13.0 0.00 0.00 0.00 26 1016.8
20260508195634 71 302 8.0 13.0 0.00 0.00 0.00 27 1016.8
20260508194614 71 263 8.0 13.0 0.00 0.00 0.00 27 1016.9
20260508193611 70 247 5.0 14.0 0.00 0.00 0.00 29 1016.9
20260508192628 70 292 5.0 14.0 0.00 0.00 0.00 28 1017.0
20260508191644 70 261 7.0 13.0 0.00 0.00 0.00 30 1017.1
20260508190624 71 264 7.0 12.0 0.00 0.00 0.00 30 1017.1
20260508185615 70 284 7.0 12.0 0.00 0.00 0.00 28 1017.1
20260508184612 71 198 4.0 10.0 0.00 0.00 0.00 29 1017.1
20260508183613 70 189 3.0 9.0 0.00 0.00 0.00 33 1017.3
20260508182650 70 255 6.0 9.0 0.00 0.00 0.00 29 1017.5
20260508181646 69 171 1.0 8.0 0.00 0.00 0.00 33 1017.6
20260508180613 69 259 6.0 9.0 0.00 0.00 0.00 33 1017.6
20260508175622 68 161 4.0 9.0 0.00 0.00 0.00 34 1017.7
20260508174622 68 270 6.0 10.0 0.00 0.00 0.00 36 1017.8
20260508173618 67 269 4.0 9.0 0.00 0.00 0.00 38 1017.7
20260508172615 68 250 7.0 12.0 0.00 0.00 0.00 39 1017.8
20260508171650 67 249 5.0 11.0 0.00 0.00 0.00 42 1017.6
20260508170628 67 189 5.0 8.0 0.00 0.00 0.00 41 1017.7
20260508165617 67 267 5.0 9.0 0.00 0.00 0.00 40 1017.7
20260508164614 67 192 2.0 5.0 0.00 0.00 0.00 39 1017.7
20260508163615 67 259 2.0 5.0 0.00 0.00 0.00 37 1017.6
20260508162629 67 268 6.0 9.0 0.00 0.00 0.00 37 1017.6
20260508161626 66 190 0.0 5.0 0.00 0.00 0.00 40 1017.6
20260508160623 66 265 3.0 9.0 0.00 0.00 0.00 36 1017.6
20260508155635 65 261 1.0 6.0 0.00 0.00 0.00 36 1017.6
20260508154630 65 294 1.0 5.0 0.00 0.00 0.00 38 1017.5
20260508153628 65 194 1.0 3.0 0.00 0.00 0.00 41 1017.4
20260508152646 64 266 0.0 4.0 0.00 0.00 0.00 41 1017.4
20260508151625 64 180 0.0 0.0 0.00 0.00 0.00 43 1017.4
20260508150621 64 180 0.0 0.0 0.00 0.00 0.00 44 1017.3
20260508145627 62 161 0.0 0.0 0.00 0.00 0.00 45 1017.3
20260508144628 62 161 0.0 0.0 0.00 0.00 0.00 45 1017.2
20260508143627 62 161 0.0 1.0 0.00 0.00 0.00 45 1017.1
20260508142624 61 161 0.0 2.0 0.00 0.00 0.00 46 1017.0
20260508141619 61 161 2.0 5.0 0.00 0.00 0.00 47 1017.0
20260508140621 61 91 1.0 4.0 0.00 0.00 0.00 48 1016.9
20260508135611 60 54 2.0 4.0 0.00 0.00 0.00 48 1016.8
20260508134626 59 53 2.0 4.0 0.00 0.00 0.00 48 1016.8
20260508133648 58 53 3.0 4.0 0.00 0.00 0.00 50 1016.6
20260508132623 56 52 3.0 3.0 0.00 0.00 0.00 49 1016.6
20260508131618 54 52 3.0 4.0 0.00 0.00 0.00 49 1016.4
20260508130633 54 83 2.0 6.0 0.00 0.00 0.00 49 1016.3
20260508125623 54 90 4.0 6.0 0.00 0.00 0.00 49 1016.2
20260508124619 54 43 3.0 6.0 0.00 0.00 0.00 48 1016.1
20260508123615 54 29 0.0 5.0 0.00 0.00 0.00 47 1016.0
20260508122611 54 36 4.0 6.0 0.00 0.00 0.00 47 1015.8
20260508121613 55 38 3.0 4.0 0.00 0.00 0.00 46 1015.8
20260508120613 55 38 0.0 6.0 0.00 0.00 0.00 46 1015.7
20260508115620 55 39 4.0 7.0 0.00 0.00 0.00 45 1015.5
20260508114617 56 45 2.0 3.0 0.00 0.00 0.00 46 1015.5
20260508113616 56 45 3.0 5.0 0.00 0.00 0.00 46 1015.5
20260508112612 56 44 3.0 5.0 0.00 0.00 0.00 46 1015.4
20260508111647 56 44 4.0 5.0 0.00 0.00 0.00 45 1015.4
20260508110628 57 76 3.0 4.0 0.00 0.00 0.00 46 1015.5
20260508105636 56 46 2.0 4.0 0.00 0.00 0.00 47 1015.4
20260508104611 56 46 2.0 4.0 0.00 0.00 0.00 46 1015.4
20260508103627 56 46 1.0 5.0 0.00 0.00 0.00 47 1015.3
20260508102626 57 46 3.0 5.0 0.00 0.00 0.00 44 1015.2
20260508101620 56 40 2.0 4.0 0.00 0.00 0.00 49 1015.2
20260508100618 57 40 2.0 4.0 0.00 0.00 0.00 45 1015.2
20260508095613 57 40 3.0 5.0 0.00 0.00 0.00 44 1015.1
20260508094628 57 34 3.0 4.0 0.00 0.00 0.00 44 1015.1
20260508093625 58 34 2.0 4.0 0.00 0.00 0.00 43 1015.2
20260508092622 58 34 3.0 5.0 0.00 0.00 0.00 43 1015.1
20260508091623 58 34 2.0 4.0 0.00 0.00 0.00 43 1015.1
20260508090619 58 34 2.0 4.0 0.00 0.00 0.00 42 1015.0
20260508085625 58 34 2.0 4.0 0.00 0.00 0.00 43 1015.0
20260508084643 59 34 1.0 3.0 0.00 0.00 0.00 43 1015.1
20260508083622 59 34 1.0 3.0 0.00 0.00 0.00 44 1014.9
20260508082620 59 34 2.0 3.0 0.00 0.00 0.00 44 1015.0
20260508081616 59 34 3.0 5.0 0.00 0.00 0.00 45 1015.0
20260508080614 59 34 2.0 4.0 0.00 0.00 0.00 44 1015.1
20260508075621 59 34 3.0 4.0 0.00 0.00 0.00 43 1015.0
20260508074620 60 34 2.0 4.0 0.00 0.00 0.00 42 1014.9
20260508073635 60 34 2.0 4.0 0.00 0.00 0.00 43 1015.0
20260508072615 60 34 3.0 4.0 0.00 0.00 0.00 43 1015.0
20260508071613 60 34 2.0 3.0 0.00 0.00 0.00 42 1015.0
20260508070611 61 34 2.0 3.0 0.00 0.00 0.00 41 1014.9
20260508065620 61 34 2.0 3.0 0.00 0.00 0.00 41 1014.9
20260508064635 61 34 2.0 3.0 0.00 0.00 0.00 42 1014.9
20260508063611 62 34 2.0 3.0 0.00 0.00 0.00 40 1014.8
20260508062627 62 34 2.0 3.0 0.00 0.00 0.00 40 1014.8
20260508061628 62 34 3.0 4.0 0.00 0.00 0.00 39 1014.7
20260508060649 62 34 2.0 4.0 0.00 0.00 0.00 40 1014.7
20260508055613 63 34 2.0 3.0 0.00 0.00 0.00 38 1014.7
20260508054629 63 34 2.0 4.0 0.00 0.00 0.00 38 1014.6
20260508053625 63 34 3.0 4.0 0.00 0.00 0.00 38 1014.6
20260508052644 64 34 2.0 4.0 0.00 0.00 0.00 37 1014.5
20260508051621 64 34 3.0 4.0 0.00 0.00 0.00 36 1014.5
20260508050615 64 34 3.0 4.0 0.00 0.00 0.00 36 1014.4
20260508045622 64 34 2.0 5.0 0.00 0.00 0.00 36 1014.4
20260508044621 64 36 3.0 5.0 0.00 0.00 0.00 38 1014.4
20260508043636 63 25 3.0 4.0 0.00 0.00 0.00 38 1014.4
20260508042611 63 5 3.0 4.0 0.00 0.00 0.00 39 1014.3
20260508041611 64 345 3.0 4.0 0.00 0.00 0.00 39 1014.2
20260508040628 64 301 3.0 4.0 0.00 0.00 0.00 37 1014.3
20260508035616 63 296 3.0 4.0 0.00 0.00 0.00 39 1014.2
20260508034613 63 281 2.0 3.0 0.00 0.00 0.00 43 1014.2
20260508033634 65 280 2.0 3.0 0.00 0.00 0.00 41 1014.0
20260508032611 66 280 0.0 0.0 0.00 0.00 0.00 35 1013.9
20260508031626 66 280 0.0 0.0 0.00 0.00 0.00 33 1013.9
20260508030623 67 280 0.0 0.0 0.00 0.00 0.00 33 1013.8
20260508025615 68 280 0.0 0.0 0.00 0.00 0.00 33 1013.7
20260508024650 68 280 0.0 0.0 0.00 0.00 0.00 31 1013.6
20260508023626 69 280 0.0 0.0 0.00 0.00 0.00 30 1013.6
20260508022622 70 280 1.0 2.0 0.00 0.00 0.00 29 1013.7
20260508021623 72 280 0.0 1.0 0.00 0.00 0.00 31 1013.6
20260508020617 73 280 0.0 3.0 0.00 0.00 0.00 27 1013.6
20260508015625 73 279 1.0 4.0 0.00 0.00 0.00 27 1013.6
20260508014626 73 297 2.0 5.0 0.00 0.00 0.00 27 1013.4
20260508013623 73 278 3.0 7.0 0.00 0.00 0.00 26 1013.5
20260508012620 73 282 4.0 7.0 0.00 0.00 0.00 26 1013.5
20260508011619 74 260 4.0 9.0 0.00 0.00 0.00 26 1013.6
20260508010616 74 309 5.0 9.0 0.00 0.00 0.00 26 1013.7
20260508005627 74 269 0.0 8.0 0.00 0.00 0.00 27 1013.8
20260508004624 74 292 6.0 9.0 0.00 0.00 0.00 26 1013.8
20260508003626 75 212 4.0 7.0 0.00 0.00 0.00 25 1013.7
20260508002623 74 248 3.0 8.0 0.00 0.00 0.00 25 1013.7
20260508001621 75 296 4.0 7.0 0.00 0.00 0.00 25 1013.7
20260508000623 75 136 2.0 7.0 0.00 0.00 0.00 25 1013.9
20260507235616 74 255 5.0 8.0 0.00 0.00 0.00 25 1014.1
20260507234614 75 208 4.0 8.0 0.00 0.00 0.00 26 1014.2
20260507233631 74 100 2.0 7.0 0.00 0.00 0.00 26 1014.3
20260507232629 74 223 2.0 10.0 0.00 0.00 0.00 28 1014.4
20260507231627 74 292 8.0 12.0 0.00 0.00 0.00 25 1014.5
20260507230624 74 316 2.0 5.0 0.00 0.00 0.00 25 1014.5
20260507225613 73 292 1.0 7.0 0.00 0.00 0.00 27 1014.7
20260507224615 72 211 3.0 6.0 0.00 0.00 0.00 28 1015.0
20260507223613 72 290 3.0 7.0 0.00 0.00 0.00 27 1015.1
20260507222629 71 209 1.0 7.0 0.00 0.00 0.00 29 1015.2
20260507221611 70 263 4.0 9.0 0.00 0.00 0.00 28 1015.4
20260507220627 71 291 5.0 8.0 0.00 0.00 0.00 28 1015.5
20260507215615 71 235 7.0 12.0 0.00 0.00 0.00 27 1015.7
20260507214613 71 248 7.0 12.0 0.00 0.00 0.00 28 1015.7
20260507213615 71 224 4.0 16.0 0.00 0.00 0.00 25 1015.8
20260507212613 71 211 4.0 9.0 0.00 0.00 0.00 27 1016.0
20260507211651 71 272 9.0 14.0 0.00 0.00 0.00 26 1016.1
20260507210611 71 271 10.0 17.0 0.00 0.00 0.00 28 1016.2
20260507205621 72 288 8.0 13.0 0.00 0.00 0.00 26 1016.3
20260507204617 71 215 7.0 13.0 0.00 0.00 0.00 25 1016.4
20260507203615 71 285 11.0 17.0 0.00 0.00 0.00 25 1016.6